Main page
METAR-TAF:

METAR-TAF

Airports :

RAF Holbeach

Holbeach, England

latitude: 52-52N, longitude: 000-09E, elevation: 3 m

Current weather observation

The report was made 12 hours and 45 minutes ago, at 09:50 UTC
Wind 22 kt from the West
Temperature 12°C
Humidity 67%
Pressure 1004 hPa
Visibility 10 km or more
Scattered clouds at a height of 2500 ft

METAR: EGYH 210950Z 27022KT 9999 SCT025 12/06 Q1004 BLU

Time: 23:35 (22:35 UTC)


TAF: missing

Weather observations and forecasts of more than 4000 airports (METAR and TAF reports).

The available stations are represented by yellow and red dots on the map.

Hover mouse over dot to see the name of the station.

Then click to see weather observations and forecasts.

To change the map : click on the green buttons with a black cross to zoom in, on the green button with a dash to zoom out, or on the green arrows for adjacent maps.


METAR-TAF: